This is the latest recevied weather packets stored in our database for station/object RK6MF-10. If no packets are shown the sender has not sent any weather packets the latest 10 day(s).
| Time | Temp. | Humidity | Pressure | Rain* | Wind** | Luminosity | Snow |
|---|---|---|---|---|---|---|---|
| 1777956467 | 11.11° C | 99% | 1010.1 hPa | - | - | - | - |
| 1777955567 | 10.56° C | 100% | 1009.9 hPa | - | - | - | - |
| 1777954667 | 10° C | 100% | 1010.1 hPa | - | - | - | - |
| 1777953767 | 9.44° C | 100% | 1010.2 hPa | - | - | - | - |
| 1777952867 | 9.44° C | 100% | 1010.1 hPa | - | - | - | - |
| 1777951966 | 8.89° C | 100% | 1009.9 hPa | - | - | - | - |
| 1777951066 | 8.33° C | 100% | 1009.8 hPa | - | - | - | - |
| 1777950166 | 8.33° C | 100% | 1009.6 hPa | - | - | - | - |
| 1777949266 | 8.33° C | 100% | 1009.3 hPa | - | - | - | - |
| 1777947466 | 7.78° C | 100% | 1009.5 hPa | - | - | - | - |
| 1777945668 | 7.22° C | 100% | 1009.5 hPa | - | - | - | - |
| 1777944768 | 7.78° C | 100% | 1009.5 hPa | - | - | - | - |
| 1777943868 | 7.78° C | 100% | 1009.6 hPa | - | - | - | - |
| 1777942968 | 7.78° C | 100% | 1009.4 hPa | - | - | - | - |
| 1777942067 | 7.78° C | 100% | 1009.4 hPa | - | - | - | - |
| 1777941167 | 7.78° C | 100% | 1009.3 hPa | - | - | - | - |
| 1777940267 | 8.33° C | 100% | 1009.3 hPa | - | - | - | - |
| 1777939367 | 8.33° C | 100% | 1009.5 hPa | - | - | - | - |
| 1777938467 | 8.33° C | 100% | 1009.6 hPa | - | - | - | - |
| 1777937566 | 8.33° C | 100% | 1009.5 hPa | - | - | - | - |
| 1777936666 | 8.89° C | 100% | 1009.7 hPa | - | - | - | - |
| 1777935766 | 8.89° C | 100% | 1009.6 hPa | - | - | - | - |
| 1777934866 | 8.89° C | 100% | 1009.6 hPa | - | - | - | - |
| 1777933966 | 8.89° C | 100% | 1009.5 hPa | - | - | - | - |
| 1777933066 | 8.89° C | 100% | 1009.7 hPa | - | - | - | - |
* Rain since midnight (hover to see other rain measurements)
** Current wind speed in m/s (hover to see current wind gust speed)